,,,PA_Meas_PMT16A,,PR_Meas_QMR101_102,,RH_Meas_QMH101,,SR_Meas_QMS101,,TA_Meas_QMH101,,GenWind,,GenWind,
date,time,status,PA,status,PR,status,RH,status,SR,status,TA,status,DirAvg,status,SpdAvg,
2012-01-04, 00:00:04,VALID,1005.21,VALID,0,VALID,86.687,VALID,0,VALID,24.9866,VALID,297,VALID,1.13281,
2012-01-04, 00:01:04,VALID,1005.17,VALID,0,VALID,87.0379,VALID,0,VALID,24.969,VALID,287,VALID,1.27461,
2012-01-04, 00:02:04,VALID,1005.15,VALID,0,VALID,86.8243,VALID,0,VALID,24.9282,VALID,308,VALID,2.31641,
2012-01-04, 00:03:04,VALID,1005.12,VALID,0,VALID,86.6793,VALID,0,VALID,24.8892,VALID,279,VALID,3.3043,
2012-01-04, 00:04:04,VALID,1005.14,VALID,0,VALID,86.9616,VALID,0,VALID,24.9106,VALID,287,VALID,2.43945,
2012-01-04, 00:05:04,VALID,1005.1,VALID,0,VALID,87.1294,VALID,0,VALID,24.8697,VALID,288,VALID,2.32969,
2012-01-04, 00:06:04,VALID,1005.04,VALID,0,VALID,87.1142,VALID,0,VALID,24.8308,VALID,302,VALID,2.58945,
2012-01-04, 00:07:04,VALID,1005.08,VALID,0,VALID,87.3965,VALID,0,VALID,24.8132,VALID,297,VALID,1.8582,
2012-01-04, 00:08:04,VALID,1005.07,VALID,0,VALID,87.5872,VALID,0,VALID,24.8132,VALID,286,VALID,2.16719,
2012-01-04, 00:09:04,VALID,1005.06,VALID,0,VALID,87.8389,VALID,0,VALID,24.7743,VALID,321,VALID,0.748828,
2012-01-04, 00:10:04,VALID,1005.08,VALID,0,VALID,87.9991,VALID,0,VALID,24.7743,VALID,290,VALID,1.35859,
2012-01-04, 00:11:04,VALID,1005.05,VALID,0,VALID,88.0907,VALID,0,VALID,24.7353,VALID,294,VALID,2.23398,
2012-01-04, 00:12:04,VALID,1005.06,VALID,0,VALID,88.1517,VALID,0,VALID,24.7159,VALID,297,VALID,2.28008,
2012-01-04, 00:13:04,VALID,1005.06,VALID,0,VALID,88.4187,VALID,0,VALID,24.6983,VALID,317,VALID,1.68086,
2012-01-04, 00:14:04,VALID,1005.02,VALID,0,VALID,88.495,VALID,0,VALID,24.6556,VALID,294,VALID,2.1043,
2012-01-04, 00:15:04,VALID,1005.03,VALID,0,VALID,88.7468,VALID,0,VALID,24.6166,VALID,296,VALID,1.28984,
2012-01-04, 00:16:04,VALID,1005.01,VALID,0,VALID,88.907,VALID,0,VALID,24.6185,VALID,304,VALID,0.887891,
2012-01-04, 00:17:04,VALID,1005.04,VALID,0,VALID,88.9222,VALID,0,VALID,24.599,VALID,271,VALID,1.52344,
2012-01-04, 00:18:04,VALID,1005.02,VALID,0,VALID,89.0367,VALID,0,VALID,24.5796,VALID,288,VALID,1.42383,
2012-01-04, 00:19:04,VALID,1004.99,VALID,0,VALID,89.3952,VALID,0,VALID,24.5582,VALID,258,VALID,0.924609,
2012-01-04, 00:20:04,VALID,1004.99,VALID,0,VALID,89.3647,VALID,0,VALID,24.5601,VALID,285,VALID,1.64023,
2012-01-04, 00:21:04,VALID,1005,VALID,0,VALID,89.3571,VALID,0,VALID,24.5193,VALID,296,VALID,2.04648,
2012-01-04, 00:22:04,VALID,1004.97,VALID,0,VALID,89.5478,VALID,0,VALID,24.5406,VALID,300,VALID,1.36875,
2012-01-04, 00:23:04,VALID,1004.97,VALID,0,VALID,89.502,VALID,0,VALID,24.5212,VALID,296,VALID,3.16484,
2012-01-04, 00:24:04,VALID,1004.98,VALID,0,VALID,89.6546,VALID,0,VALID,24.4804,VALID,292,VALID,1.91211,
2012-01-04, 00:25:04,VALID,1004.93,VALID,0,VALID,89.708,VALID,0,VALID,24.4822,VALID,303,VALID,1.89297,
2012-01-04, 00:26:04,VALID,1004.94,VALID,0,VALID,89.8835,VALID,0,VALID,24.4609,VALID,290,VALID,1.40586,
2012-01-04, 00:27:04,VALID,1004.89,VALID,0,VALID,89.7461,VALID,0,VALID,24.4414,VALID,292,VALID,2.82578,
2012-01-04, 00:28:04,VALID,1004.9,VALID,0,VALID,89.8835,VALID,0,VALID,24.422,VALID,285,VALID,1.90586,
2012-01-04, 00:29:04,VALID,1004.89,VALID,0,VALID,90.1352,VALID,0,VALID,24.422,VALID,290,VALID,1.65039,
2012-01-04, 00:30:04,VALID,1004.87,VALID,0,VALID,90.2878,VALID,0,VALID,24.4433,VALID,263,VALID,0.673437,
2012-01-04, 00:31:04,VALID,1004.87,VALID,0,VALID,90.3565,VALID,0,VALID,24.422,VALID,260,VALID,1.89727,
2012-01-04, 00:32:04,VALID,1004.8,VALID,0,VALID,90.387,VALID,0,VALID,24.4025,VALID,279,VALID,2.7043,
2012-01-04, 00:33:04,VALID,1004.82,VALID,0,VALID,90.1123,VALID,0.0815089,VALID,24.4414,VALID,299,VALID,1.86914,
2012-01-04, 00:34:04,VALID,1004.82,VALID,0,VALID,90.0132,VALID,0.0815089,VALID,24.4414,VALID,286,VALID,1.93867,
2012-01-04, 00:35:04,VALID,1004.81,VALID,0,VALID,89.8072,VALID,0.0815089,VALID,24.4609,VALID,290,VALID,2.2668,
2012-01-04, 00:36:04,VALID,1004.82,VALID,0,VALID,89.8835,VALID,0.0815089,VALID,24.459,VALID,304,VALID,1.82422,
2012-01-04, 00:37:04,VALID,1004.8,VALID,0,VALID,89.6088,VALID,0,VALID,24.4609,VALID,306,VALID,2.19805,
2012-01-04, 00:38:04,VALID,1004.74,VALID,0,VALID,89.6699,VALID,0.0815089,VALID,24.4998,VALID,287,VALID,1.73789,
2012-01-04, 00:39:04,VALID,1004.72,VALID,0,VALID,89.5478,VALID,0.0815089,VALID,24.5212,VALID,303,VALID,1.46719,
2012-01-04, 00:40:04,VALID,1004.71,VALID,0,VALID,89.1206,VALID,0.0815089,VALID,24.4785,VALID,254,VALID,2.11641,
2012-01-04, 00:41:04,VALID,1004.7,VALID,0,VALID,89.2808,VALID,0.0815089,VALID,24.4804,VALID,290,VALID,1.88867,
2012-01-04, 00:42:04,VALID,1004.65,VALID,0,VALID,88.9527,VALID,0.0815089,VALID,24.4804,VALID,287,VALID,3.27891,
2012-01-04, 00:43:04,VALID,1004.68,VALID,0,VALID,89.2579,VALID,0.0815089,VALID,24.4998,VALID,265,VALID,1.42461,
2012-01-04, 00:44:04,VALID,1004.66,VALID,0,VALID,89.1664,VALID,0,VALID,24.4804,VALID,302,VALID,1.27969,
2012-01-04, 00:45:04,VALID,1004.63,VALID,0,VALID,89.3494,VALID,0,VALID,24.5017,VALID,330,VALID,0.627734,
2012-01-04, 00:46:04,VALID,1004.61,VALID,0,VALID,89.3723,VALID,0,VALID,24.5017,VALID,276,VALID,1.13789,
2012-01-04, 00:47:04,VALID,1004.63,VALID,0,VALID,89.4257,VALID,0,VALID,24.4822,VALID,291,VALID,1.10742,
2012-01-04, 00:48:04,VALID,1004.57,VALID,0,VALID,89.1816,VALID,0,VALID,24.4822,VALID,294,VALID,2.18359,
2012-01-04, 00:49:04,VALID,1004.56,VALID,0,VALID,89.3037,VALID,0,VALID,24.4822,VALID,284,VALID,2.74023,
2012-01-04, 00:50:04,VALID,1004.55,VALID,0,VALID,89.4105,VALID,0,VALID,24.4628,VALID,301,VALID,1.86016,
2012-01-04, 00:51:04,VALID,1004.51,VALID,0,VALID,89.502,VALID,0,VALID,24.4414,VALID,275,VALID,2.11289,
2012-01-04, 00:52:04,VALID,1004.51,VALID,0,VALID,89.6088,VALID,0,VALID,24.422,VALID,282,VALID,2.53789,
2012-01-04, 00:53:04,VALID,1004.49,VALID,0,VALID,89.6699,VALID,0,VALID,24.4238,VALID,296,VALID,1.97461,
2012-01-04, 00:54:04,VALID,1004.49,VALID,0,VALID,89.7461,VALID,0,VALID,24.4025,VALID,287,VALID,1.65703,
2012-01-04, 00:55:04,VALID,1004.51,VALID,0,VALID,89.8835,VALID,0,VALID,24.4238,VALID,316,VALID,1.53398,
2012-01-04, 00:56:04,VALID,1004.52,VALID,0,VALID,89.9369,VALID,0,VALID,24.4238,VALID,277,VALID,1.50469,
2012-01-04, 00:57:04,VALID,1004.47,VALID,0,VALID,89.9674,VALID,0,VALID,24.4238,VALID,296,VALID,1.25273,
2012-01-04, 00:58:04,VALID,1004.55,VALID,0,VALID,90.0894,VALID,0,VALID,24.4414,VALID,202,VALID,0.587891,
2012-01-04, 00:59:04,VALID,1004.56,VALID,0,VALID,89.7767,VALID,0,VALID,24.4628,VALID,291,VALID,0.994922,
2012-01-04, 01:00:04,VALID,1004.53,VALID,0,VALID,89.6241,VALID,0.0815089,VALID,24.4998,VALID,278,VALID,1.60234,
2012-01-04, 01:01:04,VALID,1004.56,VALID,0,VALID,89.4563,VALID,0.0815089,VALID,24.498,VALID,340,VALID,1.04492,
2012-01-04, 01:02:04,VALID,1004.57,VALID,0,VALID,89.4181,VALID,0.0815089,VALID,24.5388,VALID,353,VALID,0.493359,
2012-01-04, 01:03:04,VALID,1004.56,VALID,0,VALID,89.1435,VALID,0.0815089,VALID,24.5582,VALID,267,VALID,2.08672,
2012-01-04, 01:04:04,VALID,1004.54,VALID,0,VALID,89.3037,VALID,0.0815089,VALID,24.5582,VALID,228,VALID,1.00469,
2012-01-04, 01:05:04,VALID,1004.52,VALID,0,VALID,88.9222,VALID,0.0815089,VALID,24.5777,VALID,278,VALID,1.76016,
2012-01-04, 01:06:04,VALID,1004.46,VALID,0,VALID,89.0443,VALID,0.0815089,VALID,24.5972,VALID,304,VALID,1.45859,
2012-01-04, 01:07:04,VALID,1004.45,VALID,0,VALID,88.9985,VALID,0.0815089,VALID,24.6361,VALID,277,VALID,1.68633,
2012-01-04, 01:08:04,VALID,1004.41,VALID,0,VALID,88.8154,VALID,0,VALID,24.675,VALID,304,VALID,0.951563,
2012-01-04, 01:09:04,VALID,1004.36,VALID,0,VALID,88.8765,VALID,0.0815089,VALID,24.714,VALID,282,VALID,1.05742,
2012-01-04, 01:10:04,VALID,1004.35,VALID,0,VALID,88.6857,VALID,0.0815089,VALID,24.7743,VALID,211,VALID,0.966406,
2012-01-04, 01:11:04,VALID,1004.37,VALID,0,VALID,88.762,VALID,0.0815089,VALID,24.7724,VALID,255,VALID,0.844531,
2012-01-04, 01:12:04,VALID,1004.37,VALID,0,VALID,88.8688,VALID,0.0815089,VALID,24.7919,VALID,226,VALID,0.641406,
2012-01-04, 01:13:04,VALID,1004.36,VALID,0,VALID,88.7391,VALID,0,VALID,24.7919,VALID,227,VALID,1.82969,
2012-01-04, 01:14:04,VALID,1004.36,VALID,0,VALID,88.9604,VALID,0.0815089,VALID,24.7724,VALID,239,VALID,0.582812,
2012-01-04, 01:15:04,VALID,1004.26,VALID,0,VALID,89.3952,VALID,0,VALID,24.7956,VALID,246,VALID,0.836328,
2012-01-04, 01:16:04,VALID,1004.25,VALID,0,VALID,90.1734,VALID,0,VALID,24.8327,VALID,234,VALID,1.45664,
2012-01-04, 01:17:04,VALID,1004.26,VALID,0,VALID,90.0284,VALID,0,VALID,24.8132,VALID,159,VALID,0.903125,
2012-01-04, 01:18:04,VALID,1004.23,VALID,0,VALID,90.4175,VALID,0,VALID,24.8327,VALID,203,VALID,0.953516,
2012-01-04, 01:19:04,VALID,1004.23,VALID,0,VALID,90.5624,VALID,0,VALID,24.8522,VALID,188,VALID,1.45117,
2012-01-04, 01:20:04,VALID,1004.18,VALID,0,VALID,90.0818,VALID,0,VALID,24.8327,VALID,195,VALID,3.55547,
2012-01-04, 01:21:04,VALID,1004.22,VALID,0,VALID,90.2954,VALID,0,VALID,24.8327,VALID,184,VALID,1.58594,
2012-01-04, 01:22:04,VALID,1004.19,VALID,0,VALID,90.3259,VALID,0,VALID,24.8327,VALID,243,VALID,1.3957,
2012-01-04, 01:23:04,VALID,1004.21,VALID,0,VALID,90.2268,VALID,0,VALID,24.8113,VALID,181,VALID,0.946875,
2012-01-04, 01:24:04,VALID,1004.13,VALID,0,VALID,89.914,VALID,0,VALID,24.8132,VALID,193,VALID,1.56523,
2012-01-04, 01:25:04,VALID,1004.15,VALID,0,VALID,89.6775,VALID,0,VALID,24.8113,VALID,164,VALID,1.19023,
2012-01-04, 01:26:04,VALID,1004.13,VALID,0,VALID,89.2426,VALID,0,VALID,24.8522,VALID,198,VALID,2.03203,
2012-01-04, 01:27:04,VALID,1004.13,VALID,0,VALID,89.2579,VALID,0,VALID,24.9106,VALID,224,VALID,1.38281,
2012-01-04, 01:28:04,VALID,1004.1,VALID,0,VALID,89.1358,VALID,0,VALID,24.9106,VALID,225,VALID,1.43633,
2012-01-04, 01:29:04,VALID,1004.07,VALID,0,VALID,89.0977,VALID,0,VALID,24.9282,VALID,183,VALID,1.8957,
2012-01-04, 01:30:04,VALID,1004.04,VALID,0,VALID,89.2045,VALID,0,VALID,24.9282,VALID,185,VALID,1.75937,
2012-01-04, 01:31:04,VALID,1004,VALID,0,VALID,88.7925,VALID,0,VALID,24.93,VALID,172,VALID,1.12031,
2012-01-04, 01:32:04,VALID,1004.01,VALID,0,VALID,88.4874,VALID,0,VALID,24.8892,VALID,182,VALID,1.53945,
2012-01-04, 01:33:04,VALID,1003.95,VALID,0,VALID,88.3806,VALID,0,VALID,24.8892,VALID,198,VALID,1.91797,
2012-01-04, 01:34:04,VALID,1003.99,VALID,0,VALID,88.5713,VALID,0,VALID,24.8911,VALID,165,VALID,0.390625,
2012-01-04, 01:35:04,VALID,1004,VALID,0,VALID,88.4264,VALID,0,VALID,24.8716,VALID,164,VALID,2.37539,
2012-01-04, 01:36:04,VALID,1003.96,VALID,0,VALID,87.4499,VALID,0,VALID,24.854,VALID,182,VALID,3.01953,
2012-01-04, 01:37:04,VALID,1003.99,VALID,0,VALID,87.7626,VALID,0,VALID,24.8522,VALID,166,VALID,1.98594,
2012-01-04, 01:38:04,VALID,1003.95,VALID,0,VALID,88.1365,VALID,0,VALID,24.8716,VALID,154,VALID,2.08242,
2012-01-04, 01:39:04,VALID,1003.98,VALID,0,VALID,88.4264,VALID,0,VALID,24.8327,VALID,170,VALID,2.50625,
2012-01-04, 01:40:04,VALID,1003.99,VALID,0,VALID,88.8765,VALID,0,VALID,24.8132,VALID,162,VALID,1.60938,
2012-01-04, 01:41:04,VALID,1003.98,VALID,0,VALID,89.235,VALID,0,VALID,24.7743,VALID,158,VALID,1.62852,
2012-01-04, 01:42:04,VALID,1004,VALID,0,VALID,89.4944,VALID,0,VALID,24.7353,VALID,155,VALID,1.25625,
2012-01-04, 01:43:04,VALID,1003.99,VALID,0,VALID,89.6927,VALID,0,VALID,24.6769,VALID,155,VALID,1.80469,
2012-01-04, 01:44:04,VALID,1004.01,VALID,0,VALID,89.9521,VALID,0,VALID,24.6574,VALID,177,VALID,1.89063,
2012-01-04, 01:45:04,VALID,1003.99,VALID,0,VALID,90.2573,VALID,0,VALID,24.5972,VALID,135,VALID,1.20391,
2012-01-04, 01:46:04,VALID,1003.97,VALID,0,VALID,90.5167,VALID,0,VALID,24.599,VALID,153,VALID,0.946094,
2012-01-04, 01:47:04,VALID,1003.97,VALID,0,VALID,90.6311,VALID,0,VALID,24.5601,VALID,166,VALID,2.14023,
2012-01-04, 01:48:04,VALID,1003.98,VALID,0,VALID,90.6616,VALID,0,VALID,24.5406,VALID,160,VALID,1.90117,
2012-01-04, 01:49:04,VALID,1003.98,VALID,0,VALID,90.8371,VALID,0,VALID,24.5193,VALID,140,VALID,0.898047,
2012-01-04, 01:50:04,VALID,1003.96,VALID,0,VALID,91.0125,VALID,0,VALID,24.5212,VALID,176,VALID,1.60742,
2012-01-04, 01:51:04,VALID,1003.96,VALID,0,VALID,91.1728,VALID,0,VALID,24.5212,VALID,152,VALID,1.13477,
2012-01-04, 01:52:04,VALID,1003.99,VALID,0,VALID,91.1499,VALID,0,VALID,24.5017,VALID,151,VALID,0.944141,
2012-01-04, 01:53:04,VALID,1003.98,VALID,0,VALID,91.2033,VALID,0,VALID,24.5017,VALID,165,VALID,0.731641,
2012-01-04, 01:54:04,VALID,1003.97,VALID,0,VALID,91.127,VALID,0,VALID,24.4822,VALID,162,VALID,0.869922,
2012-01-04, 01:55:04,VALID,1004.01,VALID,0,VALID,90.8981,VALID,0,VALID,24.4628,VALID,177,VALID,1.24297,
2012-01-04, 01:56:04,VALID,1003.99,VALID,0,VALID,90.9515,VALID,0,VALID,24.4822,VALID,234,VALID,0.553516,
2012-01-04, 01:57:04,VALID,1004,VALID,0,VALID,90.9363,VALID,0,VALID,24.4822,VALID,234,VALID,0.479297,
2012-01-04, 01:58:04,VALID,1004.03,VALID,0,VALID,91.0659,VALID,0,VALID,24.523,VALID,287,VALID,0.409375,
2012-01-04, 01:59:04,VALID,1004.02,VALID,0,VALID,90.7684,VALID,0,VALID,24.4628,VALID,140,VALID,1.51758,
2012-01-04, 02:00:04,VALID,1004.04,VALID,0,VALID,90.6158,VALID,0,VALID,24.5017,VALID,209,VALID,1.03398,
2012-01-04, 02:01:04,VALID,1004.04,VALID,0,VALID,90.6387,VALID,0,VALID,24.5212,VALID,136,VALID,1.04219,
2012-01-04, 02:02:04,VALID,1004.03,VALID,0,VALID,90.6845,VALID,0,VALID,24.5406,VALID,119,VALID,0.920313,
2012-01-04, 02:03:04,VALID,1004.04,VALID,0,VALID,90.593,VALID,0,VALID,24.5193,VALID,102,VALID,0.567969,
2012-01-04, 02:04:04,VALID,1004.04,VALID,0,VALID,90.6616,VALID,0,VALID,24.5193,VALID,103,VALID,0.269922,
2012-01-04, 02:05:04,VALID,1004.02,VALID,0,VALID,90.715,VALID,0,VALID,24.5406,VALID,103,VALID,0.350391,
2012-01-04, 02:06:04,VALID,1004.04,VALID,0,VALID,90.509,VALID,0,VALID,24.5212,VALID,135,VALID,0.529688,
2012-01-04, 02:07:04,VALID,1004.03,VALID,0,VALID,90.654,VALID,0,VALID,24.5212,VALID,132,VALID,0.658594,
2012-01-04, 02:08:04,VALID,1003.99,VALID,0,VALID,90.6845,VALID,0,VALID,24.5212,VALID,121,VALID,0.0773437,
2012-01-04, 02:09:04,VALID,1003.99,VALID,0,VALID,90.3717,VALID,0,VALID,24.4609,VALID,122,VALID,0.813672,
2012-01-04, 02:10:04,VALID,1003.97,VALID,0,VALID,90.5167,VALID,0,VALID,24.5017,VALID,148,VALID,0.546094,
2012-01-04, 02:11:04,VALID,1003.97,VALID,0,VALID,90.3336,VALID,0,VALID,24.4609,VALID,148,VALID,0.55,
2012-01-04, 02:12:04,VALID,1003.98,VALID,0,VALID,90.181,VALID,0,VALID,24.5017,VALID,145,VALID,0.69375,
2012-01-04, 02:13:04,VALID,1003.97,VALID,0,VALID,90.1505,VALID,0,VALID,24.5017,VALID,127,VALID,0.926562,
2012-01-04, 02:14:04,VALID,1003.98,VALID,0,VALID,90.4175,VALID,0,VALID,24.5212,VALID,129,VALID,0.514063,
2012-01-04, 02:15:04,VALID,1004,VALID,0,VALID,90.5319,VALID,0,VALID,24.5212,VALID,95,VALID,0.8875,
2012-01-04, 02:16:04,VALID,1003.98,VALID,0,VALID,90.7837,VALID,0,VALID,24.4804,VALID,113,VALID,0.621484,
2012-01-04, 02:17:04,VALID,1003.99,VALID,0,VALID,90.9134,VALID,0,VALID,24.4822,VALID,113,VALID,0.503906,
2012-01-04, 02:18:04,VALID,1003.99,VALID,0,VALID,90.9057,VALID,0,VALID,24.422,VALID,116,VALID,1.00742,
2012-01-04, 02:19:04,VALID,1003.99,VALID,0.5,VALID,91.0125,VALID,0,VALID,24.4238,VALID,108,VALID,0.66875,
2012-01-04, 02:20:04,VALID,1004,VALID,0,VALID,91.2796,VALID,0,VALID,24.383,VALID,106,VALID,0.553906,
2012-01-04, 02:21:04,VALID,1004.03,VALID,0,VALID,91.4245,VALID,0,VALID,24.3654,VALID,91,VALID,0.590625,
2012-01-04, 02:22:04,VALID,1003.99,VALID,0,VALID,91.4932,VALID,0,VALID,24.3265,VALID,92,VALID,0.905469,
2012-01-04, 02:23:04,VALID,1003.98,VALID,0,VALID,91.7907,VALID,0,VALID,24.2662,VALID,99,VALID,0.761328,
2012-01-04, 02:24:04,VALID,1003.99,VALID,0,VALID,91.8975,VALID,0,VALID,24.2681,VALID,90,VALID,0.687891,
2012-01-04, 02:25:04,VALID,1004,VALID,0,VALID,92.0196,VALID,0,VALID,24.2078,VALID,106,VALID,1.07617,
2012-01-04, 02:26:04,VALID,1003.98,VALID,0,VALID,92.1798,VALID,0.0815089,VALID,24.1884,VALID,107,VALID,0.455859,
2012-01-04, 02:27:04,VALID,1003.99,VALID,0,VALID,92.3323,VALID,0.0815089,VALID,24.1689,VALID,96,VALID,0.490234,
2012-01-04, 02:28:04,VALID,1003.99,VALID,0,VALID,92.4544,VALID,0,VALID,24.1689,VALID,98,VALID,0.651563,
2012-01-04, 02:29:04,VALID,1003.99,VALID,0,VALID,92.5536,VALID,0.0815089,VALID,24.1707,VALID,102,VALID,0.360547,
2012-01-04, 02:30:04,VALID,1004.01,VALID,0,VALID,92.6756,VALID,0,VALID,24.13,VALID,102,VALID,0.577734,
2012-01-04, 02:31:04,VALID,1003.97,VALID,0,VALID,92.729,VALID,0,VALID,24.1726,VALID,102,VALID,0.323828,
2012-01-04, 02:32:04,VALID,1003.99,VALID,0,VALID,92.813,VALID,0,VALID,24.1318,VALID,100,VALID,0.6625,
2012-01-04, 02:33:04,VALID,1003.99,VALID,0,VALID,92.8587,VALID,0,VALID,24.1105,VALID,100,VALID,0.498047,
2012-01-04, 02:34:04,VALID,1003.97,VALID,0,VALID,92.8816,VALID,0,VALID,24.091,VALID,100,VALID,0.302734,
2012-01-04, 02:35:04,VALID,1003.97,VALID,0,VALID,92.9198,VALID,0,VALID,24.1105,VALID,100,VALID,0.314844,
2012-01-04, 02:36:04,VALID,1003.97,VALID,0,VALID,93.0723,VALID,0,VALID,24.091,VALID,119,VALID,0.703516,
2012-01-04, 02:37:04,VALID,1003.96,VALID,0,VALID,93.0647,VALID,0,VALID,24.0697,VALID,119,VALID,0.553125,
2012-01-04, 02:38:04,VALID,1003.95,VALID,0,VALID,93.08,VALID,0,VALID,24.1123,VALID,119,VALID,0.49375,
2012-01-04, 02:39:04,VALID,1003.94,VALID,0,VALID,93.1715,VALID,0,VALID,24.1105,VALID,119,VALID,0.233984,
2012-01-04, 02:40:04,VALID,1003.93,VALID,0,VALID,93.2478,VALID,0,VALID,24.1105,VALID,119,VALID,0.353125,
2012-01-04, 02:41:04,VALID,1003.9,VALID,0,VALID,93.3241,VALID,0,VALID,24.1105,VALID,119,VALID,0.301562,
2012-01-04, 02:42:04,VALID,1003.89,VALID,0,VALID,93.3317,VALID,0,VALID,24.13,VALID,119,VALID,0.408203,
2012-01-04, 02:43:04,VALID,1003.89,VALID,0,VALID,93.3775,VALID,0.0815089,VALID,24.1105,VALID,119,VALID,0.30625,
2012-01-04, 02:44:04,VALID,1003.84,VALID,0,VALID,93.4309,VALID,0,VALID,24.13,VALID,92,VALID,0.524609,
2012-01-04, 02:45:04,VALID,1003.85,VALID,0,VALID,93.4309,VALID,0,VALID,24.1513,VALID,96,VALID,0.626562,
2012-01-04, 02:46:04,VALID,1003.81,VALID,0,VALID,93.4385,VALID,0,VALID,24.1318,VALID,96,VALID,0.150781,
2012-01-04, 02:47:04,VALID,1003.8,VALID,0,VALID,93.3699,VALID,0,VALID,24.13,VALID,96,VALID,0.173438,
2012-01-04, 02:48:04,VALID,1003.77,VALID,0,VALID,93.4843,VALID,0,VALID,24.1494,VALID,152,VALID,0.486719,
2012-01-04, 02:49:04,VALID,1003.8,VALID,0,VALID,93.5453,VALID,0,VALID,24.1689,VALID,152,VALID,0.387891,
2012-01-04, 02:50:04,VALID,1003.77,VALID,0,VALID,93.5148,VALID,0,VALID,24.2097,VALID,152,VALID,0.275,
2012-01-04, 02:51:04,VALID,1003.75,VALID,0,VALID,93.5606,VALID,0,VALID,24.2273,VALID,161,VALID,0.61875,
2012-01-04, 02:52:04,VALID,1003.74,VALID,0,VALID,93.5682,VALID,0,VALID,24.2662,VALID,180,VALID,0.867578,
2012-01-04, 02:53:04,VALID,1003.74,VALID,0,VALID,93.4843,VALID,0,VALID,24.3052,VALID,168,VALID,0.325781,
2012-01-04, 02:54:04,VALID,1003.71,VALID,0,VALID,93.3928,VALID,0,VALID,24.3422,VALID,137,VALID,0.867969,
2012-01-04, 02:55:04,VALID,1003.73,VALID,0,VALID,93.2402,VALID,0,VALID,24.4238,VALID,149,VALID,0.695313,
2012-01-04, 02:56:04,VALID,1003.73,VALID,0,VALID,92.9426,VALID,0,VALID,24.4822,VALID,180,VALID,1.1375,
2012-01-04, 02:57:04,VALID,1003.76,VALID,0,VALID,92.5841,VALID,0,VALID,24.5601,VALID,176,VALID,1.23242,
2012-01-04, 02:58:04,VALID,1003.77,VALID,0,VALID,92.2789,VALID,0.0815089,VALID,24.5972,VALID,181,VALID,0.432031,
2012-01-04, 02:59:04,VALID,1003.76,VALID,0,VALID,92.1035,VALID,0,VALID,24.6574,VALID,182,VALID,0.636328,
2012-01-04, 03:00:04,VALID,1003.78,VALID,0,VALID,91.9585,VALID,0,VALID,24.6556,VALID,173,VALID,0.641406,
2012-01-04, 03:01:04,VALID,1003.79,VALID,0,VALID,91.8975,VALID,0,VALID,24.6964,VALID,173,VALID,0.504297,
2012-01-04, 03:02:04,VALID,1003.78,VALID,0,VALID,91.7983,VALID,0,VALID,24.675,VALID,173,VALID,0.0792969,
2012-01-04, 03:03:04,VALID,1003.77,VALID,0,VALID,91.7602,VALID,0,VALID,24.7159,VALID,173,VALID,0.0304688,
2012-01-04, 03:04:04,VALID,1003.78,VALID,0,VALID,91.661,VALID,0,VALID,24.7353,VALID,140,VALID,0.275781,
2012-01-04, 03:05:04,VALID,1003.76,VALID,0,VALID,91.5695,VALID,0,VALID,24.714,VALID,85,VALID,0.0375,
2012-01-04, 03:06:04,VALID,1003.77,VALID,0,VALID,91.5618,VALID,0,VALID,24.714,VALID,85,VALID,0.090625,
2012-01-04, 03:07:04,VALID,1003.75,VALID,0,VALID,91.3177,VALID,0,VALID,24.714,VALID,199,VALID,0.753516,
2012-01-04, 03:08:04,VALID,1003.78,VALID,0,VALID,91.1346,VALID,0,VALID,24.7548,VALID,203,VALID,0.636719,
2012-01-04, 03:09:04,VALID,1003.78,VALID,0,VALID,91.0049,VALID,0,VALID,24.7743,VALID,214,VALID,0.392578,
2012-01-04, 03:10:04,VALID,1003.77,VALID,0,VALID,90.6998,VALID,0,VALID,24.7529,VALID,207,VALID,1.02461,
2012-01-04, 03:11:04,VALID,1003.78,VALID,0,VALID,90.6235,VALID,0,VALID,24.8327,VALID,174,VALID,0.129297,
2012-01-04, 03:12:04,VALID,1003.77,VALID,0,VALID,90.3565,VALID,0,VALID,24.8113,VALID,195,VALID,1.31055,
2012-01-04, 03:13:04,VALID,1003.76,VALID,0,VALID,90.2191,VALID,0,VALID,24.8716,VALID,152,VALID,0.367578,
2012-01-04, 03:14:04,VALID,1003.75,VALID,0,VALID,90.2268,VALID,0,VALID,24.8911,VALID,152,VALID,0.339063,
2012-01-04, 03:15:04,VALID,1003.79,VALID,0,VALID,90.2039,VALID,0.0815089,VALID,24.8679,VALID,162,VALID,0.544141,
2012-01-04, 03:16:04,VALID,1003.75,VALID,0,VALID,90.0971,VALID,0.0815089,VALID,24.8892,VALID,205,VALID,0.916016,
2012-01-04, 03:17:04,VALID,1003.74,VALID,0,VALID,90.12,VALID,0,VALID,24.8873,VALID,200,VALID,0.228906,
2012-01-04, 03:18:04,VALID,1003.74,VALID,0,VALID,90.1352,VALID,0.0815089,VALID,24.8873,VALID,206,VALID,0.433203,
2012-01-04, 03:19:04,VALID,1003.74,VALID,0,VALID,90.1276,VALID,0.0815089,VALID,24.8873,VALID,206,VALID,0.191016,
2012-01-04, 03:20:04,VALID,1003.75,VALID,0,VALID,90.1581,VALID,0,VALID,24.8892,VALID,205,VALID,0.214844,
2012-01-04, 03:21:04,VALID,1003.77,VALID,0,VALID,90.1657,VALID,0.0815089,VALID,24.9087,VALID,237,VALID,0.716016,
2012-01-04, 03:22:04,VALID,1003.75,VALID,0,VALID,90.3259,VALID,0.0815089,VALID,24.9087,VALID,229,VALID,0.146875,
2012-01-04, 03:23:04,VALID,1003.72,VALID,0,VALID,90.2649,VALID,0.0815089,VALID,24.9087,VALID,228,VALID,0.406641,
2012-01-04, 03:24:04,VALID,1003.74,VALID,0,VALID,90.1734,VALID,0,VALID,24.9087,VALID,217,VALID,0.291406,
2012-01-04, 03:25:04,VALID,1003.73,VALID,0,VALID,90.2268,VALID,0.0815089,VALID,24.9087,VALID,217,VALID,0.431641,
2012-01-04, 03:26:04,VALID,1003.74,VALID,0,VALID,90.2497,VALID,0,VALID,24.8873,VALID,217,VALID,0.167578,
2012-01-04, 03:27:04,VALID,1003.71,VALID,0,VALID,90.2649,VALID,0.0815089,VALID,24.9087,VALID,217,VALID,0.167187,
2012-01-04, 03:28:04,VALID,1003.73,VALID,0,VALID,90.2039,VALID,0.0815089,VALID,24.9282,VALID,153,VALID,0.658984,
2012-01-04, 03:29:04,VALID,1003.73,VALID,0,VALID,90.0666,VALID,0.0815089,VALID,24.9263,VALID,167,VALID,0.813281,
2012-01-04, 03:30:04,VALID,1003.7,VALID,0,VALID,89.9903,VALID,0,VALID,24.969,VALID,210,VALID,0.646484,
2012-01-04, 03:31:04,VALID,1003.7,VALID,0,VALID,90.0818,VALID,0,VALID,24.969,VALID,191,VALID,0.53125,
2012-01-04, 03:32:04,VALID,1003.72,VALID,0,VALID,90.1734,VALID,0,VALID,24.9671,VALID,173,VALID,0.310937,
2012-01-04, 03:33:04,VALID,1003.69,VALID,0,VALID,90.1657,VALID,0,VALID,24.969,VALID,221,VALID,0.471094,
2012-01-04, 03:34:04,VALID,1003.69,VALID,0,VALID,90.1505,VALID,0,VALID,24.969,VALID,221,VALID,0.0175781,
2012-01-04, 03:35:04,VALID,1003.66,VALID,0,VALID,90.2954,VALID,0,VALID,24.9476,VALID,221,VALID,0.379687,
2012-01-04, 03:36:04,VALID,1003.7,VALID,0,VALID,90.4938,VALID,0,VALID,24.969,VALID,221,VALID,0.0761719,
2012-01-04, 03:37:04,VALID,1003.66,VALID,0,VALID,90.6387,VALID,0,VALID,24.9885,VALID,221,VALID,0,
2012-01-04, 03:38:04,VALID,1003.65,VALID,0,VALID,90.8142,VALID,0,VALID,24.9476,VALID,268,VALID,0.749219,
2012-01-04, 03:39:04,VALID,1003.67,VALID,0,VALID,90.7455,VALID,0,VALID,24.9476,VALID,226,VALID,0.430469,
2012-01-04, 03:40:04,VALID,1003.65,VALID,0,VALID,90.7074,VALID,0,VALID,24.9885,VALID,226,VALID,0.0539063,
2012-01-04, 03:41:04,VALID,1003.66,VALID,0,VALID,90.7455,VALID,0,VALID,24.969,VALID,226,VALID,0.30625,
2012-01-04, 03:42:04,VALID,1003.6,VALID,0,VALID,90.8066,VALID,0,VALID,24.9476,VALID,226,VALID,0,
2012-01-04, 03:43:04,VALID,1003.58,VALID,0,VALID,90.9057,VALID,0,VALID,24.9495,VALID,226,VALID,0,